STARLINK-11704 [DTC] (64245 NORAD) Tracking and Keplerian Element Data

This shows tracking and keplerian element data for the satellite.

Feedback or suggestion? Click here.




ElementValue
Catalog64245
NameSTARLINK-11704 [DTC]
Epoch Orbit3271
Epoch Day353.99633889
Epoch Year2025
RAAN329.2388
Inclination42.9991
Eccentricity0.0001649
Argument of Perigee226.6993
Mean Anonmoly133.3737
Mean Motion15.70851625
Decay Rate0.00173371
L11 64245U 25119N 25353.99633889 .00173371 00000+0 13260-2 0 9997
L22 64245 42.9991 329.2388 0001649 226.6993 133.3737 15.70851625 32719



Live tracking and technical data element details for STARLINK-11704 [DTC] (NORAD 64245). STARLINK-11704 [DTC] can be tracked NOW for your location showing map with azimuth and elevation plus other details from your city location.







IsCatalogInMostPopularTable: catalog: 64245, numindb: 8
Update: records affected: 1



GetName: 64245 STARLINK-11704 [DTC]

Hit Count: updated at: Thu, 16 Apr 2026 05:32:15 GMT